Weather History for Buffalo, WY

Change the Weather History Date:

Friday, October 4, 2013

  Actual Average Record
Temperature  
Mean Temperature 32 °F 50 °F  
Max Temperature 34 °F 62 °F 85 °F (2010)
Min Temperature 29 °F 38 °F 27 °F (1966)
Degree Days  
Heating Degree Days 33 15  
Month to date heating degree days 89 59  
Since 1 July heating degree days 241 373  
Cooling Degree Days 0 0  
Month to date cooling degree days 0 0  
Year to date cooling degree days 709 491  
Moisture  
Dew Point 26 °F    
Average Humidity 72    
Maximum Humidity 92    
Minimum Humidity 51    
Precipitation  
Precipitation 0.07 in 0.05 in 0.53 in (2001)
Month to date precipitation 1.70 0.19  
Year to date precipitation 9.46 11.77  
Sea Level Pressure  
Sea Level Pressure 30.26 in    
Wind  
Wind Speed 28 mph (NNW)    
Max Wind Speed 37 mph    
Max Gust Speed 49 mph    
Visibility 2 miles    
Events Fog , Snow    
T = Trace of Precipitation, MM = Missing Value Source: NWS Daily Summary

Daily Weather History Graph

Daily Weather History Graph

Search for Another Location

Airport:

Trip Planner

Search our weather history database for the weather conditions in past years. The results will help you decide how hot, cold, wet, or windy it might be!

Date:

Astronomy

Oct. 04, 2013 Rise Set
Actual Time 7:08 AM MDT 6:41 PM MDT
Civil Twilight 6:39 AM MDT 7:10 PM MDT
Nautical Twilight 6:06 AM MDT 7:44 PM MDT
Astronomical Twilight 5:32 AM MDT 8:17 PM MDT
Moon 6:47 AM MDT (10/4) 6:24 PM MDT (10/4)
Length of Visible Light 12h 30m
Length of Day
11h 32m
Waning Crescent, 0% of the Moon is Illuminated
Oct 4
Waning Crescent
Oct 4
New
Oct 11
First Quarter
Oct 18
Full
Oct 26
Last Quarter

Hourly Weather History & Observations

Time (MDT) Temp. Windchill Dew Point Humidity Pressure Visibility Wind Dir Wind Speed Gust Speed Precip Events Conditions
12:42 AM 32.0 °F 20.5 °F 30.2 °F 93% 30.14 in 1.0 mi NNW 18.4 mph 27.6 mph 0.02 in Snow Light Snow
12:49 AM 32.0 °F 20.1 °F 30.2 °F 93% 30.14 in 1.2 mi NNW 19.6 mph 27.6 mph 0.02 in Snow Light Snow
12:53 AM 32.0 °F 19.8 °F 30.9 °F 96% 30.18 in 1.0 mi NW 20.7 mph 27.6 mph 0.03 in Snow Light Snow
1:02 AM 32.0 °F 19.8 °F 30.2 °F 93% 30.15 in 0.8 mi NW 20.7 mph 28.8 mph 0.00 in Snow Light Snow
1:15 AM 32.0 °F 20.8 °F 30.2 °F 93% 30.15 in 1.0 mi NNW 17.3 mph 27.6 mph 0.01 in Snow Light Snow
1:53 AM 32.0 °F 19.2 °F 30.0 °F 92% 30.19 in 1.0 mi NNW 23.0 mph 27.6 mph 0.02 in Snow Light Snow
2:17 AM 32.0 °F 18.9 °F 30.2 °F 93% 30.16 in 0.8 mi NNW 24.2 mph 34.5 mph 0.00 in Snow Light Snow
2:27 AM 32.0 °F 18.9 °F 30.2 °F 93% 30.16 in 0.8 mi NNW 24.2 mph 38.0 mph 0.01 in Snow Light Snow
2:45 AM 32.0 °F 18.9 °F 30.2 °F 93% 30.15 in 1.0 mi NW 24.2 mph 38.0 mph 0.01 in Snow Light Snow
2:53 AM 32.0 °F 19.2 °F 30.0 °F 92% 30.19 in 1.0 mi NW 23.0 mph 34.5 mph 0.01 in Snow Light Snow
3:08 AM 32.0 °F 18.9 °F 30.2 °F 93% 30.15 in 0.8 mi NW 24.2 mph 38.0 mph 0.00 in Snow Light Snow
3:23 AM 32.0 °F 17.9 °F 28.4 °F 87% 30.16 in 0.8 mi NW 28.8 mph 38.0 mph 0.00 in Snow Light Snow
3:35 AM 32.0 °F 18.4 °F 28.4 °F 87% 30.17 in 0.8 mi NW 26.5 mph 36.8 mph 0.00 in Snow Light Snow
3:53 AM 32.0 °F 18.1 °F 28.9 °F 88% 30.20 in 0.8 mi NNW 27.6 mph 40.3 mph 0.01 in Snow Light Snow
4:53 AM 30.9 °F 16.4 °F 28.9 °F 92% 30.23 in 0.5 mi NW 28.8 mph 39.1 mph 0.01 in Fog , Snow Snow
5:25 AM 30.2 °F 14.9 °F 28.4 °F 93% 30.18 in 0.5 mi NW 31.1 mph 41.4 mph 0.01 in Fog , Snow Snow
5:45 AM 30.2 °F 14.5 °F 28.4 °F 93% 30.19 in 0.5 mi NNW 33.4 mph 41.4 mph 0.01 in Fog , Snow Snow
5:53 AM 30.9 °F - 28.0 °F 89% 30.25 in 0.5 mi North - - 0.02 in Fog , Snow Snow
6:29 AM 30.2 °F 14.9 °F 28.4 °F 93% 30.20 in 0.8 mi NW 31.1 mph 41.4 mph 0.00 in Snow Light Snow
6:53 AM 30.0 °F 14.2 °F 27.0 °F 88% 30.28 in 0.5 mi NNW 33.4 mph 43.7 mph 0.00 in Fog , Snow Snow
7:37 AM 28.4 °F 12.5 °F 26.6 °F 93% 30.23 in 0.2 mi NW 31.1 mph 42.6 mph 0.00 in Fog , Snow Snow
7:53 AM 28.9 °F 13.5 °F 26.1 °F 89% 30.32 in 0.2 mi NNW 29.9 mph 46.0 mph 0.00 in Fog , Snow Snow
8:18 AM 28.4 °F 13.0 °F 26.6 °F 93% 30.25 in 0.2 mi NNW 28.8 mph 41.4 mph 0.00 in Fog , Snow Snow
8:53 AM 28.9 °F 13.7 °F 26.1 °F 89% 30.33 in 0.5 mi NNW 28.8 mph 41.4 mph 0.00 in Fog , Snow Snow
9:53 AM 28.9 °F 13.5 °F 25.0 °F 85% 30.35 in 0.5 mi NW 29.9 mph 40.3 mph 0.00 in Fog , Snow Snow
10:25 AM 28.4 °F 12.5 °F 24.8 °F 86% 30.28 in 0.5 mi NNW 31.1 mph 44.9 mph 0.00 in Fog , Snow Snow
10:53 AM 28.9 °F 13.2 °F 25.0 °F 85% 30.37 in 0.5 mi NW 31.1 mph 42.6 mph 0.00 in Fog , Snow Snow
11:23 AM 28.4 °F 12.7 °F 24.8 °F 86% 30.28 in 0.5 mi NNW 29.9 mph 40.3 mph 0.00 in Fog , Snow Snow
11:53 AM 28.9 °F 12.5 °F 25.0 °F 85% 30.36 in 0.5 mi NNW 34.5 mph 43.7 mph 0.00 in Fog , Snow Light Snow
12:53 PM 28.9 °F 13.5 °F 25.0 °F 85% 30.36 in 0.5 mi NNW 29.9 mph 41.4 mph 0.01 in Fog , Snow Snow
1:53 PM 28.9 °F 13.2 °F 26.1 °F 89% 30.35 in 0.8 mi NNW 31.1 mph 40.3 mph 0.00 in Snow Light Snow
2:53 PM 28.9 °F 13.2 °F 25.0 °F 85% 30.35 in 0.5 mi NNW 31.1 mph 39.1 mph 0.00 in Fog , Snow Snow
3:28 PM 28.4 °F 13.5 °F 26.6 °F 93% 30.27 in 1.0 mi NNW 26.5 mph 39.1 mph 0.00 in Snow Light Snow
3:45 PM 28.4 °F 13.0 °F 26.6 °F 93% 30.26 in 1.2 mi North 28.8 mph 39.1 mph 0.00 in   Overcast
5:53 PM 28.9 °F 12.8 °F 25.0 °F 85% 30.37 in 1.0 mi NNW 33.4 mph 41.4 mph N/A   Mist
6:17 PM 30.2 °F 14.3 °F 21.2 °F 69% 30.29 in 1.2 mi NNW 34.5 mph 47.2 mph N/A   Unknown
6:34 PM 30.2 °F 14.5 °F 21.2 °F 69% 30.29 in 2.5 mi NNW 33.4 mph 49.5 mph N/A   Overcast
6:53 PM 30.0 °F 14.9 °F 21.9 °F 72% 30.37 in 2.5 mi NNW 29.9 mph 47.2 mph N/A   Overcast
7:02 PM 30.2 °F 15.2 °F 21.2 °F 69% 30.28 in 5.0 mi NNW 29.9 mph 43.7 mph 0.00 in   Overcast
7:53 PM 30.9 °F 15.5 °F 21.9 °F 69% 30.37 in 4.0 mi NW 33.4 mph 43.7 mph 0.00 in   Haze
8:53 PM 34.0 °F 21.3 °F 18.0 °F 52% 30.37 in 10.0 mi NNW 25.3 mph 35.7 mph N/A   Overcast
9:53 PM 32.0 °F 19.8 °F 21.0 °F 64% 30.38 in 10.0 mi NNW 20.7 mph 32.2 mph N/A   Overcast
10:53 PM 33.1 °F 20.6 °F 21.9 °F 64% 30.38 in 10.0 mi NNW 23.0 mph 27.6 mph N/A   Overcast
11:53 PM 33.1 °F 21.2 °F 23.0 °F 66% 30.36 in 10.0 mi NNW 20.7 mph 27.6 mph N/A   Overcast